Hollywood, FL

2:43 AM EDT on March 27, 2017 (GMT -0400)
North Perry

Weather History for KHWO - January, 2014

Change the Weather History Date:

Thursday, January 9, 2014

  Actual Average (KFLL) Record (KFLL)
Temperature  
Mean Temperature 73 °F -  
Max Temperature 77 °F 75 °F 85 °F (1948)
Min Temperature 69 °F 59 °F 34 °F (1956)
Cooling Degree Days 8    
Growing Degree Days 23 (Base 50)    
Moisture  
Dew Point 71 °F    
Average Humidity 92    
Maximum Humidity 100    
Minimum Humidity 83    
Precipitation  
Precipitation 1.62 in - - ()
Sea Level Pressure  
Sea Level Pressure 30.19 in    
Wind  
Wind Speed 11 mph (ENE)    
Max Wind Speed 15 mph    
Max Gust Speed 24 mph    
Visibility 9 miles    
Events Rain    
Averages and records for this station are not official NWS values.
T = Trace of Precipitation, MM = Missing Value Source: NWS Daily Summary

Daily Weather History Graph

Daily Weather History Graph

Search for Another Location

Airport or City:

Trip Planner

Search our weather history database for the weather conditions in past years. The results will help you decide how hot, cold, wet, or windy it might be!

Date:

Astronomy

Jan. 09, 2014 Rise Set
Actual Time 7:09 AM EST 5:46 PM EST
Civil Twilight 6:44 AM EST 6:11 PM EST
Nautical Twilight 6:16 AM EST 6:40 PM EST
Astronomical Twilight 5:48 AM EST 7:08 PM EST
Moon 1:00 PM EST (1/9) 1:30 AM EST (1/9)
Length of Visible Light 11h 27m
Length of Day
10h 37m
Waxing Gibbous, 66% of the Moon is Illuminated
Jan 9
Waxing Gibbous
Jan 15
Full
Jan 24
Last Quarter
Jan 30
New
Feb 6
First Quarter

Hourly Weather History & Observations

Time (EST) Temp. Dew Point Humidity Pressure Visibility Wind Dir Wind Speed Gust Speed Precip Events Conditions
12:45 AM 69.8 °F 68.0 °F 94% 30.21 in 10.0 mi ENE 13.8 mph - 0.01 in Rain Light Rain
12:53 AM 70.0 °F 68.0 °F 93% 30.21 in 10.0 mi ENE 15.0 mph 24.2 mph 0.01 in Rain Light Rain
1:02 AM 69.8 °F 68.0 °F 94% 30.21 in 10.0 mi ENE 13.8 mph - 0.00 in Rain Light Rain
1:40 AM 69.8 °F 68.0 °F 94% 30.19 in 8.0 mi ENE 15.0 mph - 0.00 in Rain Light Rain
1:53 AM 70.0 °F 68.0 °F 93% 30.19 in 8.0 mi ENE 13.8 mph - 0.01 in Rain Light Rain
2:13 AM 69.8 °F 69.8 °F 100% 30.19 in 9.0 mi ENE 15.0 mph 23.0 mph 0.00 in Rain Light Rain
2:53 AM 71.1 °F 69.1 °F 93% 30.19 in 10.0 mi ENE 9.2 mph - 0.03 in Rain Light Rain
3:53 AM 71.1 °F 70.0 °F 96% 30.18 in 8.0 mi ENE 11.5 mph - 0.06 in Rain Light Rain
4:21 AM 71.6 °F 69.8 °F 94% 30.18 in 10.0 mi ENE 13.8 mph - 0.00 in Rain Light Rain
4:53 AM 71.1 °F 70.0 °F 96% 30.18 in 10.0 mi ENE 11.5 mph - 0.01 in   Overcast
5:00 AM 71.6 °F 69.8 °F 94% 30.18 in 9.0 mi ENE 11.5 mph - 0.00 in Rain Light Rain
5:43 AM 71.6 °F 69.8 °F 94% 30.18 in 10.0 mi ENE 9.2 mph - 0.01 in   Overcast
5:53 AM 71.1 °F 70.0 °F 96% 30.18 in 10.0 mi ENE 12.7 mph 18.4 mph 0.01 in   Overcast
6:42 AM 71.6 °F 69.8 °F 94% 30.19 in 10.0 mi NE 10.4 mph - 0.01 in Rain Light Rain
6:53 AM 71.1 °F 70.0 °F 96% 30.19 in 10.0 mi ENE 11.5 mph - 0.01 in   Overcast
7:00 AM 71.6 °F 69.8 °F 94% 30.20 in 10.0 mi NE 11.5 mph - N/A   Overcast
7:15 AM 71.6 °F 69.8 °F 94% 30.20 in 10.0 mi ENE 13.8 mph - 0.00 in Rain Light Rain
7:28 AM 71.6 °F 69.8 °F 94% 30.20 in 2.0 mi ENE 10.4 mph - 0.00 in Rain Light Rain
7:44 AM 71.6 °F 69.8 °F 94% 30.21 in 10.0 mi NE 10.4 mph - 0.02 in Rain Light Rain
7:53 AM 72.0 °F 71.1 °F 97% 30.22 in 10.0 mi ENE 11.5 mph - 0.02 in   Overcast
8:01 AM 71.6 °F 71.6 °F 100% 30.21 in 10.0 mi ENE 13.8 mph - N/A   Overcast
8:43 AM 73.4 °F 71.6 °F 94% 30.22 in 10.0 mi ENE 12.7 mph - N/A   Overcast
8:53 AM 73.0 °F 71.1 °F 93% 30.22 in 10.0 mi ENE 12.7 mph - N/A   Overcast
9:53 AM 73.9 °F 72.0 °F 93% 30.24 in 10.0 mi East 11.5 mph - 0.00 in   Overcast
10:10 AM 75.2 °F 73.4 °F 94% 30.24 in 10.0 mi ENE 12.7 mph - N/A   Overcast
10:19 AM 75.2 °F 73.4 °F 94% 30.25 in 10.0 mi ENE 12.7 mph - N/A   Overcast
10:53 AM 73.9 °F 72.0 °F 93% 30.24 in 3.0 mi East 4.6 mph - 0.08 in Rain Rain
11:08 AM 75.2 °F 71.6 °F 89% 30.23 in 7.0 mi East 10.4 mph - 0.02 in Rain Light Rain
11:26 AM 73.4 °F 71.6 °F 94% 30.24 in 1.0 mi ENE 13.8 mph 18.4 mph 0.53 in Rain Heavy Rain
11:41 AM 73.4 °F 71.6 °F 94% 30.22 in 1.2 mi NE 13.8 mph - 1.00 in Rain Heavy Rain
11:53 AM 73.0 °F 71.1 °F 93% 30.22 in 2.5 mi NE 12.7 mph - 1.21 in Rain Heavy Rain
12:01 PM 73.4 °F 71.6 °F 94% 30.21 in 6.0 mi ENE 8.1 mph - 0.04 in Rain Rain
12:16 PM 73.4 °F 73.4 °F 100% 30.21 in 8.0 mi ENE 5.8 mph - 0.04 in   Overcast
12:47 PM 73.4 °F 73.4 °F 100% 30.18 in 6.0 mi ENE 8.1 mph - 0.17 in   Overcast
12:53 PM 73.9 °F 73.0 °F 97% 30.19 in 6.0 mi ENE 8.1 mph - 0.17 in   Overcast
1:53 PM 77.0 °F 73.0 °F 88% 30.15 in 10.0 mi East 10.4 mph - N/A   Partly Cloudy
2:16 PM 77.0 °F 71.6 °F 83% 30.15 in 10.0 mi East 11.5 mph - N/A   Mostly Cloudy
2:53 PM 77.0 °F 72.0 °F 84% 30.14 in 10.0 mi ESE 10.4 mph - N/A   Mostly Cloudy
3:53 PM 77.0 °F 72.0 °F 84% 30.14 in 10.0 mi ESE 11.5 mph - N/A   Partly Cloudy
4:22 PM 77.0 °F 71.6 °F 83% 30.14 in 10.0 mi ESE 8.1 mph - N/A   Mostly Cloudy
4:31 PM 77.0 °F 71.6 °F 83% 30.14 in 10.0 mi ESE 8.1 mph - N/A   Scattered Clouds
4:53 PM 77.0 °F 72.0 °F 84% 30.14 in 10.0 mi ESE 4.6 mph - N/A   Scattered Clouds
5:19 PM 75.2 °F 71.6 °F 89% 30.15 in 10.0 mi East 6.9 mph - N/A   Mostly Cloudy
6:53 PM 73.9 °F 71.1 °F 91% 30.16 in 10.0 mi East 4.6 mph - N/A   Clear
7:53 PM 73.0 °F 71.1 °F 93% 30.18 in 10.0 mi East 3.5 mph - N/A   Clear
8:53 PM 73.0 °F 72.0 °F 96% 30.20 in 10.0 mi Calm Calm - N/A   Mostly Cloudy
9:23 PM 75.2 °F 71.6 °F 89% 30.20 in 10.0 mi ESE 4.6 mph - N/A   Scattered Clouds
9:38 PM 75.2 °F 71.6 °F 89% 30.20 in 10.0 mi ESE 4.6 mph - 0.00 in Rain Light Rain
9:53 PM 75.0 °F 72.0 °F 90% 30.21 in 10.0 mi ESE 4.6 mph - 0.00 in   Mostly Cloudy
10:23 PM 75.2 °F 71.6 °F 89% 30.20 in 10.0 mi ESE 10.4 mph - N/A   Overcast
10:53 PM 75.9 °F 71.1 °F 85% 30.19 in 10.0 mi ESE 8.1 mph - N/A   Mostly Cloudy
11:53 PM 75.9 °F 71.1 °F 85% 30.18 in 10.0 mi SE 9.2 mph - N/A   Mostly Cloudy